COSMOS 1275 DEB, 12729

Orbit data source: Space-Track

COSMOS 1275 DEB, 12729 is space debris in LEO originally from a launch on Thu, 04 Jun 1981 UTC launched from the Plesetsk Missile And Space Complex (PKMTR). Debris objects in space refer to the collection of defunct objects orbiting the Earth. Examples of debris include non-operational satellites, rocket bodies, and fragments generated from explosions, collisions, or faulty payload assembly.

Loading next visibility...
Identifier
12729, 1981-053BW
Orbit
LEO
Country
Flag of CISCIS
Related business
Manufacturer
Unknown
Mission
Spacecraft
Bus & Motor
Unknown
Mass
Unknown
Launch date (UTC)
1981-06-04 (45 years ago)
Launch vehicle
Unknown
Launch site
Plesetsk Missile And Space Complex (PKMTR)
Object type
Payload
Rocket body
Debris
Shape & HBR
Unknown shape, 0.1 m
Radar Cross Section
Small (<0.1 m²)

Expand to show TLE details & history
Last TLE update: 9 hours ago

TLE from 9 hours ago
0 COSMOS 1275 DEB
1 12729U 81053BW  26036.17517568  .00000675  00000-0  83329-3 0  9991
2 12729  83.0459 192.9127 0128800 133.9333 350.5517 13.60289892 61705
Epoch: 2026-02-05T04:12Z
TLE epoch observation values (Epoch: 2026-02-05T04:12:15.178Z)
Latitude
55.24466°
Longitude
164.44738°
Altitude
949.625 km
Speed
7.429 km/s
True Right ascension
00h 11m 22s
True Declination
55° 05' 15"
Sunlit
Object was in daylight at epoch
Visualization orbit readout
Latitude
Unknown
Longitude
Unknown
Altitude
Unknown
Speed
Unknown
Apparent Right ascension
Unknown
Apparent Declination
Unknown
Sunlit
N/A
Visualization observer readout
Local Sidereal Time
14:54:49
Azimuth
Unknown
Elevation
Unknown
Doppler factor
Unknown
Orbital elements
Apogee altitude
1,127.243 km
Perigee altitude
936.363 km
Semi-major axis
7,409.94 km
Eccentricity
0.01288
Inclination
83.0459°
RAAN
192.9127°
Arg. of periapsis
133.9333°
True anomaly
350.30551°
Mean anomaly
350.5517°
Eccentric anomaly
350.429°
Mean motion
3.40268 °/min
Orbital period
105.8 mins
BSTAR
0.00083329
Loading maneuver chart data...
Computing Atmospheric mass density...
Loading historical data...
Loading historical data...
Loading historical data...
Loading historical data...
Loading historical data...
Loading historical data...
Loading historical data...

Documentation

Showing up to 5 results
|